Track SAUDISAT 3 now! 10-day predictions SAUDISAT 3 is classified as:
1 31118U 07012B 22138.13817952 .00000417 00000-0 78687-4 0 9998 2 31118 97.9675 85.9198 0013834 294.9767 65.0001 14.69312489808704